Dayton Wright, OH

8:22 AM EDT on August 19, 2017 (GMT -0400)
Dayton-Wright Brothers

Weather History for KMGY - January, 2013

Change the Weather History Date:

Wednesday, January 9, 2013

  Actual Average (KFFO) Record (KFFO)
Temperature  
Mean Temperature 44 °F -  
Max Temperature 50 °F 35 °F 55 °F (2006)
Min Temperature 36 °F 20 °F 3 °F (1999)
Degree Days  
Heating Degree Days 22    
Moisture  
Dew Point 34 °F    
Average Humidity 70    
Maximum Humidity 89    
Minimum Humidity 52    
Precipitation  
Precipitation 0.02 in - - ()
Sea Level Pressure  
Sea Level Pressure 30.34 in    
Wind  
Wind Speed 8 mph (SW)    
Max Wind Speed 13 mph    
Max Gust Speed 22 mph    
Visibility 10 miles    
Events Rain    
Averages and records for this station are not official NWS values.
T = Trace of Precipitation, MM = Missing Value Source: NWS Daily Summary

Daily Weather History Graph

Daily Weather History Graph

Search for Another Location

Airport or City:

Trip Planner

Search our weather history database for the weather conditions in past years. The results will help you decide how hot, cold, wet, or windy it might be!

Date:

Astronomy

Jan. 09, 2013 Rise Set
Actual Time 7:57 AM EST 5:31 PM EST
Civil Twilight 7:27 AM EST 6:01 PM EST
Nautical Twilight 6:54 AM EST 6:34 PM EST
Astronomical Twilight 6:21 AM EST 7:06 PM EST
Moon 5:35 AM EST (1/9) 3:31 PM EST (1/9)
Length of Visible Light 10h 33m
Length of Day
9h 33m
Waning Crescent, 6% of the Moon is Illuminated
Jan 9
Waning Crescent
Jan 11
New
Jan 18
First Quarter
Jan 26
Full
Feb 3
Last Quarter

Hourly Weather History & Observations

Time (EST) Temp. Windchill Dew Point Humidity Pressure Visibility Wind Dir Wind Speed Gust Speed Precip Events Conditions
12:53 AM 39.0 °F 34.8 °F 30.0 °F 70% 30.24 in 10.0 mi SSE 5.8 mph - N/A   Clear
1:53 AM 37.0 °F 31.6 °F 28.9 °F 73% 30.23 in 10.0 mi South 6.9 mph - N/A   Clear
2:53 AM 37.0 °F 30.4 °F 30.9 °F 79% 30.22 in 10.0 mi South 9.2 mph - N/A   Overcast
3:53 AM 39.9 °F 33.4 °F 30.9 °F 70% 30.23 in 10.0 mi South 10.4 mph - N/A   Overcast
4:53 AM 39.0 °F 32.3 °F 32.0 °F 76% 30.21 in 10.0 mi South 10.4 mph - N/A   Mostly Cloudy
5:53 AM 42.1 °F 36.1 °F 34.0 °F 73% 30.23 in 10.0 mi SW 10.4 mph - N/A   Overcast
6:53 AM 43.0 °F 36.8 °F 34.0 °F 71% 30.25 in 10.0 mi SW 11.5 mph 19.6 mph N/A   Overcast
7:53 AM 44.1 °F 37.7 °F 35.1 °F 71% 30.28 in 10.0 mi SW 12.7 mph 21.9 mph 0.00 in   Overcast
8:53 AM 43.0 °F 37.2 °F 37.0 °F 80% 30.30 in 7.0 mi SSW 10.4 mph - 0.00 in Rain Light Rain
9:53 AM 42.1 °F 35.2 °F 39.0 °F 89% 30.32 in 9.0 mi SW 12.7 mph - 0.02 in   Overcast
10:53 AM 44.1 °F 38.1 °F 39.9 °F 85% 30.34 in 10.0 mi WSW 11.5 mph - N/A   Clear
11:53 AM 46.0 °F 41.0 °F 39.9 °F 79% 30.34 in 10.0 mi West 10.4 mph - N/A   Partly Cloudy
12:53 PM 48.0 °F - 39.0 °F 71% 30.32 in 10.0 mi West 10.4 mph 17.3 mph N/A   Clear
1:53 PM 48.9 °F - 37.9 °F 66% 30.32 in 10.0 mi West 10.4 mph - N/A   Clear
2:53 PM 50.0 °F - 36.0 °F 59% 30.34 in 10.0 mi West 8.1 mph - N/A   Clear
3:53 PM 50.0 °F - 34.0 °F 54% 30.37 in 10.0 mi West 9.2 mph - N/A   Clear
4:53 PM 48.9 °F - 32.0 °F 52% 30.39 in 10.0 mi West 4.6 mph - N/A   Clear
5:53 PM 46.0 °F 43.1 °F 30.9 °F 56% 30.41 in 10.0 mi West 5.8 mph - N/A   Clear
6:53 PM 44.1 °F - 30.9 °F 60% 30.44 in 10.0 mi Calm Calm - N/A   Clear
7:53 PM 43.0 °F 39.5 °F 30.9 °F 62% 30.46 in 10.0 mi WSW 5.8 mph - N/A   Clear
8:53 PM 42.1 °F - 30.9 °F 65% 30.48 in 10.0 mi Calm Calm - N/A   Clear
9:53 PM 39.0 °F 35.7 °F 30.9 °F 73% 30.49 in 10.0 mi SW 4.6 mph - N/A   Clear
10:53 PM 39.0 °F 36.8 °F 30.9 °F 73% 30.51 in 10.0 mi WSW 3.5 mph - N/A   Clear
11:53 PM 36.0 °F - 30.0 °F 79% 30.51 in 10.0 mi Calm Calm - N/A   Clear